GEFSMA_500_meanwind_318.txt.gz
Wind_Speed
5 5 4 4 4 4 4 5 5 5 5 5 5 5 5 5 6 5 5 6 6 5 5 5 5 5 4 4 4 4 4 6 6 6 6 7 8 8 9 10 10 10 11
5 4 4 4 4 3 3 4 4 4 5 5 5 5 5 5 5 5 6 6 6 6 6 6 6 6 5 5 5 5 6 6 7 7 7 7 8 8 9 10 10 10 10
5 4 4 4 3 3 3 3 4 4 5 5 5 5 5 5 5 5 6 6 6 6 6 6 5 5 5 5 5 6 6 6 6 7 7 7 7 8 9 9 9 10 10
5 4 4 4 3 3 3 3 4 4 5 5 5 5 6 5 5 5 6 6 7 7 7 7 7 7 6 7 7 7 7 6 6 7 7 7 8 8 9 9 9 9 9
4 4 4 3 3 3 3 3 4 4 5 6 6 6 6 5 6 7 7 7 7 7 8 8 7 7 8 8 7 7 7 7 7 7 8 8 8 9 9 9 9 9 9
4 4 3 3 3 3 3 3 4 4 5 6 6 6 6 7 7 7 7 7 7 7 8 8 7 8 8 8 8 8 8 8 8 8 8 8 8 9 9 9 9 9 10
3 2 3 3 3 4 3 2 3 3 4 4 5 6 7 7 8 8 8 7 8 8 8 8 8 8 8 9 8 8 8 8 8 8 8 9 8 8 9 9 10 10 10
2 1 2 2 2 2 2 2 2 3 3 4 5 6 7 8 8 9 8 8 8 8 9 9 9 9 9 9 9 9 8 8 8 8 7 8 8 9 9 10 10 11 11
1 2 2 2 1 1 2 2 3 3 3 4 5 6 7 8 8 8 8 8 8 9 9 10 10 10 10 10 10 10 9 9 8 8 8 9 9 9 9 9 10 10 11
1 1 2 2 2 2 2 2 3 4 4 5 6 6 7 7 8 7 8 8 9 9 10 10 10 10 10 10 10 10 10 9 9 9 10 10 10 10 10 11 11 11 12
1 2 2 3 3 3 3 3 4 5 6 6 6 6 7 7 7 7 8 9 9 10 10 10 11 11 11 11 11 11 10 10 11 11 11 12 11 11 11 12 12 13 13
2 3 3 3 4 4 4 5 5 6 6 6 6 7 7 8 8 9 9 9 10 11 11 11 11 11 11 11 12 11 11 11 11 12 13 13 13 13 13 13 13 14 14
3 4 4 4 5 5 6 7 7 7 7 7 7 7 8 9 10 10 10 11 11 11 11 12 12 11 12 12 12 13 13 13 13 13 14 14 15 15 15 15 15 15 16
4 5 6 6 6 6 7 7 8 8 8 8 8 8 9 10 11 11 11 11 11 12 12 13 13 13 13 14 14 14 14 15 15 15 15 16 17 17 17 17 17 18 18
6 7 7 8 8 8 9 9 9 10 10 10 10 10 11 12 12 12 12 12 12 12 13 14 14 14 15 15 15 15 15 15 16 16 16 17 18 18 18 19 19 19 19
8 8 9 10 10 11 11 11 11 11 12 12 12 13 13 14 14 14 13 13 14 14 14 15 16 16 16 16 16 16 16 17 17 17 17 18 18 19 19 19 19 19 20
9 10 11 11 12 12 12 12 13 14 14 15 15 16 16 16 15 15 15 15 16 16 16 16 16 17 17 18 18 18 18 18 19 19 19 19 20 20 21 21 20 21 21
11 12 12 13 13 14 14 14 15 15 16 16 17 18 18 18 18 18 17 17 17 18 18 18 18 19 19 20 20 20 20 20 21 21 21 21 21 22 22 23 23 23 23
14 14 14 15 15 15 16 16 17 17 17 18 18 19 19 20 20 20 20 20 20 20 20 20 20 21 22 22 22 22 22 23 23 23 24 24 24 24 24 24 24 25 25
16 16 17 17 17 17 18 18 19 19 19 19 19 19 20 20 21 21 21 22 23 23 22 23 22 23 24 25 25 24 24 25 26 26 26 27 27 27 27 26 26 26 27
18 18 19 19 19 19 20 20 20 21 21 20 21 21 22 21 22 23 24 24 25 25 25 25 25 25 26 27 27 27 27 27 28 28 28 28 29 29 29 28 28 29 29
20 20 21 21 21 21 21 22 22 22 23 23 23 23 23 23 24 24 25 25 26 27 27 28 27 28 28 29 30 29 29 29 29 30 30 31 31 31 30 30 31 31 31
21 22 23 23 23 23 23 24 24 25 25 25 24 24 25 25 25 26 26 27 28 28 29 29 30 30 30 31 32 31 31 31 31 32 33 32 33 33 33 33 33 33 33
23 24 24 25 24 24 24 25 26 26 27 26 26 26 26 26 27 28 28 28 30 30 30 31 32 32 32 33 33 33 32 33 33 34 34 34 34 34 34 34 34 35 35
25 26 26 25 25 25 26 27 27 27 27 27 27 27 27 28 28 29 29 29 30 31 32 33 33 34 34 34 35 34 34 34 34 34 35 35 35 35 35 35 35 35 35
27 27 27 27 27 27 27 27 28 29 29 29 28 29 29 30 30 30 30 30 31 32 33 34 34 35 35 35 36 36 36 36 36 36 36 36 36 36 35 35 35 35 36

GEFSMA_500_meanwind_324.txt.gz
Wind_Speed
4 4 4 4 4 4 4 4 4 4 5 5 5 5 5 6 6 6 6 6 6 6 5 4 4 4 4 4 4 4 4 4 4 5 5 6 7 8 8 9 9 9 10
4 4 4 3 3 3 3 4 4 4 5 5 5 6 6 6 6 6 6 6 7 7 7 6 5 5 5 4 4 4 5 5 5 5 6 6 7 8 8 8 9 9 9
3 3 3 3 3 3 4 4 4 4 5 5 6 6 7 6 6 6 6 6 6 6 7 7 6 5 5 5 5 5 5 5 5 6 6 6 6 7 8 8 9 9 9
3 2 2 2 2 2 3 3 4 4 4 5 6 7 8 7 7 7 6 6 7 7 7 7 7 6 6 6 6 6 5 5 5 6 6 6 5 6 7 7 8 9 9
2 2 2 2 2 2 3 3 3 3 4 5 6 7 7 7 7 7 7 7 7 7 7 8 8 8 7 7 6 5 5 6 6 6 6 6 6 7 7 7 8 8 8
2 2 2 2 2 3 3 3 2 3 4 4 5 6 7 7 7 8 7 7 7 7 8 8 9 9 8 8 7 7 7 7 7 7 7 6 6 7 7 7 8 8 8
2 2 2 2 2 3 3 3 3 3 3 4 5 6 6 7 7 7 7 8 8 8 8 9 9 9 9 8 8 8 8 8 7 7 7 7 7 7 7 7 8 8 9
1 1 1 2 2 3 3 3 3 4 4 5 5 6 7 7 7 8 8 8 8 8 9 9 9 9 9 9 9 9 9 9 8 7 7 7 8 8 7 8 8 8 9
1 1 2 2 2 3 3 4 4 4 5 5 5 6 7 8 8 8 8 8 8 8 9 9 9 9 10 10 10 10 10 9 9 8 8 9 9 9 9 9 9 9 10
2 3 3 4 4 4 4 5 5 5 5 5 6 7 8 8 8 9 8 8 8 9 9 9 9 9 10 11 11 11 10 10 9 9 9 9 9 9 10 10 11 11 11
4 5 5 5 5 5 5 6 5 6 6 6 7 7 8 7 8 9 9 9 9 9 9 10 10 10 10 10 11 11 11 11 10 10 10 10 10 10 11 11 11 12 12
5 6 7 7 7 7 6 7 7 7 7 7 7 8 8 8 9 10 10 10 10 10 10 10 11 11 11 11 12 12 12 12 12 12 12 11 11 12 12 12 12 13 13
7 7 8 8 8 8 8 8 8 9 9 9 9 9 9 9 10 10 10 10 10 11 11 11 12 12 12 13 13 13 13 14 14 13 13 13 13 13 13 13 14 14 14
8 8 8 8 9 9 9 9 10 10 10 11 10 10 10 11 11 11 11 11 12 12 12 12 13 13 14 14 14 14 14 14 14 14 14 14 15 14 14 14 15 15 15
9 9 9 9 10 10 11 11 12 12 12 12 12 12 12 12 12 12 12 13 13 13 14 14 15 15 16 16 16 16 16 16 16 16 16 16 16 16 16 16 16 16 17
9 10 10 11 11 11 12 12 12 12 12 12 13 13 14 14 14 14 15 15 15 15 16 16 17 17 17 18 18 18 17 17 17 17 18 18 18 18 18 18 18 18 18
11 11 12 12 12 13 13 13 13 14 14 14 15 15 16 16 17 17 17 18 18 18 18 19 19 20 20 20 20 20 20 20 20 19 20 20 20 20 20 20 20 20 20
13 14 14 14 15 15 15 15 16 15 16 16 16 17 17 17 18 19 19 19 20 21 21 20 21 22 22 22 22 22 22 22 22 22 22 22 22 22 22 21 22 22 22
15 15 16 17 17 17 17 17 18 18 18 18 18 19 19 19 20 21 21 21 22 22 22 23 23 23 24 24 24 24 24 24 24 25 25 24 24 24 24 24 24 24 24
17 17 18 19 19 19 19 19 20 20 20 20 20 21 21 21 22 23 23 23 24 24 24 25 25 25 25 25 26 25 25 26 26 26 27 27 26 26 26 26 26 26 26
19 20 20 20 20 20 20 21 22 22 23 23 23 23 23 23 24 24 25 26 26 26 26 26 26 26 26 26 27 26 26 26 26 27 27 27 27 28 28 28 28 28 28
20 20 21 21 21 21 22 22 23 23 24 24 24 24 25 25 25 26 27 27 27 27 27 27 27 27 27 27 27 27 27 27 27 27 28 29 29 29 29 30 29 30 30
21 21 22 22 22 22 23 23 23 23 24 24 25 25 26 27 27 28 28 28 29 29 29 29 29 28 28 28 29 29 28 29 29 29 29 29 29 29 30 30 30 30 30
23 22 23 23 24 24 24 24 24 24 25 26 27 28 28 29 29 29 29 30 30 30 30 29 29 29 29 29 30 30 30 31 31 31 31 30 30 30 30 31 31 31 31
23 23 23 24 25 26 27 27 27 28 28 28 29 29 29 29 29 30 31 31 31 31 30 30 30 30 30 30 30 31 31 32 31 31 32 31 31 31 32 32 32 32 32
25 25 26 26 27 28 29 29 30 30 30 30 30 30 31 31 31 32 32 32 32 31 31 31 31 31 31 31 31 31 31 31 32 32 32 32 33 33 33 33 34 34 33

GEFSMA_500_meanwind_330.txt.gz
Wind_Speed
4 4 4 4 5 5 6 6 7 8 8 8 9 10 10 10 9 9 9 8 8 7 6 5 4 4 3 3 3 3 2 2 3 3 3 3 3 3 3 4 5 5 5
4 4 5 4 5 5 6 6 7 7 8 8 9 9 10 9 10 10 9 9 8 8 7 6 6 5 4 4 3 3 3 3 3 3 3 3 3 3 3 3 4 4 5
4 4 4 4 5 5 5 6 7 7 7 8 9 9 10 10 10 10 10 10 9 8 8 7 7 7 6 5 4 3 3 3 3 3 3 3 3 4 4 4 4 4 5
4 4 4 4 5 5 5 5 6 6 7 7 8 9 10 9 10 10 10 10 10 9 9 9 8 8 7 6 5 4 4 4 3 3 3 3 4 4 5 6 6 5 6
3 4 4 4 5 5 5 5 6 6 6 7 7 8 9 9 9 10 10 10 9 9 9 9 9 9 8 7 6 5 5 5 5 4 4 4 5 5 5 6 6 6 6
4 4 4 5 5 5 5 6 6 6 6 7 8 8 9 9 9 10 10 10 9 9 9 9 9 9 10 9 8 7 6 5 5 4 4 5 5 5 5 5 6 6 6
4 4 5 5 5 5 6 7 7 7 6 6 7 8 8 8 8 9 9 9 9 9 8 9 9 9 10 9 9 8 7 6 5 5 5 5 5 6 6 5 6 6 7
4 4 5 5 6 6 6 7 7 8 8 7 6 7 8 8 9 8 8 9 9 9 9 9 9 9 9 9 9 9 9 8 6 6 6 6 7 7 7 7 7 8 8
5 5 6 6 6 6 7 7 7 8 8 8 7 7 8 8 9 9 9 9 9 9 9 9 9 9 10 9 10 10 10 10 8 8 7 7 7 8 8 8 8 9 9
6 6 7 6 7 6 7 8 8 8 9 8 7 7 8 9 9 9 9 9 8 9 10 10 10 9 10 10 11 11 11 11 11 10 9 9 9 9 9 9 9 10 10
6 7 7 7 7 8 8 8 8 8 9 8 8 9 9 10 10 10 10 9 9 9 10 10 10 11 11 11 12 12 11 12 12 12 11 11 11 10 10 11 10 11 11
8 8 8 8 9 9 9 9 9 9 9 9 10 10 11 12 12 11 11 10 10 10 10 10 10 11 11 12 13 13 13 12 12 12 12 12 12 12 12 12 12 12 12
9 9 9 10 10 10 10 10 10 11 10 11 12 12 12 13 13 12 12 12 12 12 12 12 12 12 12 12 13 14 14 14 14 14 14 14 13 14 14 14 14 14 14
10 10 10 10 11 11 11 11 12 12 13 13 13 13 13 13 13 13 13 14 14 13 13 13 13 13 14 14 14 14 15 15 15 16 16 16 15 15 16 15 15 15 15
10 10 11 11 12 12 13 13 13 14 14 14 14 14 13 14 14 14 14 15 15 15 15 15 15 16 16 16 16 16 16 16 17 17 17 16 16 16 17 16 16 17 17
11 11 11 12 13 14 14 14 15 15 14 14 14 14 15 15 15 16 16 17 17 17 17 17 18 18 19 19 19 18 18 18 18 18 18 18 18 18 18 17 17 17 18
12 12 13 14 15 15 15 16 15 15 15 15 16 16 17 17 17 17 18 19 19 19 19 19 19 20 20 21 21 21 21 21 20 20 20 20 19 19 20 19 19 19 19
14 14 14 15 15 16 16 17 17 16 16 17 18 18 19 19 19 19 20 20 20 21 22 21 21 22 22 22 22 23 23 22 22 22 21 21 21 21 21 21 21 21 20
16 16 17 17 18 18 18 18 18 18 18 18 19 20 20 20 20 20 21 21 22 22 23 24 23 23 23 23 23 24 24 24 24 24 23 22 22 22 22 21 21 21 21
17 18 19 20 20 20 20 20 20 20 20 20 20 20 21 21 22 22 23 23 23 24 25 25 26 25 25 25 25 26 25 25 25 25 25 24 24 23 23 22 22 22 22
19 19 19 20 21 21 21 21 21 21 21 22 22 23 23 22 23 23 24 24 24 25 26 27 27 26 25 26 26 26 25 24 24 25 25 25 25 25 24 24 24 23 22
20 20 21 21 21 21 22 22 23 23 23 24 24 24 24 24 24 25 25 26 26 27 28 28 28 27 26 26 26 26 25 25 25 25 25 25 26 26 26 25 25 25 25
22 23 22 22 22 23 23 24 24 25 25 25 26 27 26 25 25 26 27 27 28 29 29 29 28 28 28 27 27 27 27 26 26 26 26 26 26 26 26 26 26 26 26
24 24 24 24 24 25 25 26 27 26 26 27 27 27 27 27 28 28 29 29 29 30 30 30 31 30 29 29 29 28 28 28 28 28 28 27 27 27 27 27 27 27 28
25 25 25 26 26 26 27 28 28 28 28 28 29 29 29 29 29 30 31 31 31 31 32 32 31 31 31 30 30 29 29 30 29 29 29 29 29 29 29 29 29 29 29
26 26 27 27 27 28 29 30 30 29 29 29 30 31 31 31 31 31 31 32 32 32 32 32 32 31 32 31 31 31 31 31 31 31 31 31 31 31 31 31 31 32 31

GEFSMA_500_meanwind_336.txt.gz
Wind_Speed
5 6 5 6 6 7 7 7 7 7 6 7 7 7 7 8 8 8 7 6 6 5 5 4 3 2 1 1 1 2 2 2 2 2 2 3 3 3 3 4 5 5 6
6 5 5 5 5 6 6 6 6 7 7 7 7 7 7 7 8 8 7 6 6 7 6 5 4 3 2 2 1 1 1 1 2 2 2 3 3 4 4 4 4 5 5
6 5 5 5 5 5 5 5 5 6 6 6 7 7 7 7 7 7 7 7 6 6 6 6 5 4 3 3 2 1 2 2 2 2 2 2 3 3 4 4 4 5 5
5 5 6 5 5 5 5 5 5 5 6 6 6 6 6 6 7 7 7 7 7 6 6 6 6 5 4 3 2 2 2 2 2 2 2 2 3 3 3 4 4 5 5
4 5 5 5 4 5 5 5 5 6 5 6 6 6 6 6 6 6 7 7 7 6 5 5 5 5 4 3 3 2 2 2 2 2 3 3 4 4 4 4 4 5 6
4 4 4 5 4 4 4 4 5 5 6 6 6 6 6 6 6 6 6 7 6 6 5 4 4 4 4 4 3 3 3 3 3 3 4 4 5 5 5 6 6 6 6
3 3 3 4 4 4 4 4 5 5 5 6 7 6 6 6 6 6 6 6 6 5 5 4 4 4 4 4 3 3 3 3 4 4 5 5 5 6 7 7 7 7 8
3 3 3 4 5 4 4 4 5 5 6 6 6 6 6 6 6 6 6 6 6 5 4 4 5 4 3 4 4 4 4 4 4 4 5 6 6 6 7 7 8 9 9
3 3 4 4 4 5 5 5 5 6 5 6 6 6 6 6 7 7 7 6 6 5 4 4 4 4 4 4 4 4 4 4 4 5 5 6 7 7 8 8 8 9 9
3 3 3 3 4 5 6 6 6 6 6 6 7 6 7 7 7 8 7 6 6 6 5 5 5 6 6 5 6 6 5 5 5 6 6 7 7 8 10 10 10 10 11
3 3 4 4 5 5 6 6 6 6 6 7 7 7 8 8 8 8 8 7 7 7 7 7 7 7 7 7 7 7 7 6 7 7 8 8 8 8 9 10 11 12 12
3 4 5 5 5 6 6 7 7 7 7 7 8 8 9 9 9 9 8 8 9 8 9 9 9 9 9 8 8 8 8 8 8 9 9 9 9 10 10 10 11 12 13
4 5 5 6 6 7 7 8 8 8 8 9 9 10 11 11 11 10 10 10 10 10 9 9 10 10 10 10 9 10 10 11 11 10 10 11 11 11 11 12 13 14 14
5 6 6 6 7 8 8 9 9 9 10 11 11 12 12 12 12 12 12 12 12 11 11 11 12 12 11 12 12 12 12 13 12 12 11 12 12 12 13 13 14 14 15
7 7 7 7 8 8 9 10 11 11 12 12 13 13 13 13 12 12 13 14 13 13 13 14 13 13 13 14 14 14 14 13 13 13 13 13 13 13 14 14 13 14 15
8 9 9 9 9 10 11 12 12 13 13 14 14 14 13 12 13 14 14 14 15 15 14 15 15 15 15 14 15 15 15 15 15 15 15 14 14 14 14 15 15 15 15
9 9 9 10 11 12 12 13 14 15 14 14 14 13 13 14 15 15 16 15 16 16 16 16 16 16 16 16 16 16 16 16 16 15 16 16 16 16 16 16 16 16 16
11 12 12 12 13 14 14 14 15 15 15 15 15 15 15 15 16 17 17 17 17 18 18 18 18 18 17 17 17 17 17 17 17 17 17 17 17 18 18 18 18 17 17
13 14 14 15 15 15 15 16 16 17 17 17 17 17 17 18 18 18 19 19 19 20 20 19 19 19 18 18 18 19 18 18 19 19 18 18 19 19 19 19 20 19 18
14 15 15 16 17 17 17 17 18 19 19 19 18 19 19 20 20 20 20 21 21 21 21 21 21 21 21 21 20 19 19 20 20 20 20 20 20 20 20 20 20 20 20
16 16 17 18 19 19 19 19 20 21 21 20 20 21 22 22 22 22 22 22 22 23 23 23 23 23 23 23 22 21 22 22 22 22 22 22 22 22 22 22 22 22 23
19 19 19 20 21 21 21 21 22 22 23 23 23 24 24 23 23 23 23 23 23 24 25 26 25 24 25 25 24 24 23 23 24 24 24 24 25 24 25 25 25 25 24
21 21 21 22 22 23 23 24 24 24 24 24 24 25 24 24 24 24 24 25 25 26 26 27 26 26 26 26 26 26 25 25 25 26 26 26 27 27 27 27 27 26 26
22 22 23 23 24 24 25 25 25 25 24 25 25 25 25 25 25 26 25 26 26 26 26 26 26 26 26 27 26 27 26 26 26 27 27 27 27 28 28 28 27 27 27
23 24 24 25 25 25 26 26 25 26 26 26 26 26 26 26 27 27 27 26 27 27 27 27 26 26 26 27 27 27 27 27 26 27 27 28 27 27 28 27 28 28 28
24 25 25 26 26 27 27 27 27 27 27 27 27 28 27 28 28 28 28 28 28 27 27 27 27 27 27 27 27 27 28 28 28 27 28 29 28 28 28 29 30 30 29

GEFSMA_500_meanwind_342.txt.gz
Wind_Speed
6 6 6 6 5 5 5 5 5 6 6 7 7 7 7 7 7 8 8 7 7 6 6 4 3 4 3 2 2 2 2 3 3 3 4 4 4 4 4 4 5 5 6
5 5 5 5 5 5 5 5 5 6 6 6 6 7 7 7 7 8 7 7 7 7 6 5 4 4 3 2 3 3 3 3 3 4 4 4 4 4 5 5 5 5 6
4 4 4 4 4 5 5 5 5 6 6 6 6 7 7 7 7 7 7 7 7 7 6 5 4 4 4 3 2 2 3 3 4 4 3 3 4 4 4 5 5 6 6
3 3 3 3 3 3 4 4 4 5 6 6 6 6 7 7 6 6 7 7 7 6 6 5 5 4 4 3 2 2 2 3 3 3 3 4 4 4 4 5 5 6 5
2 2 2 1 1 2 3 3 4 4 5 6 6 7 7 7 6 6 6 6 7 6 6 6 5 4 4 4 3 3 2 3 3 3 3 4 5 5 5 6 6 6 6
1 1 1 0 1 1 2 2 3 4 5 5 6 6 7 6 6 6 6 6 7 6 6 6 6 5 5 4 4 3 3 3 3 4 4 5 6 6 6 7 7 7 8
0 1 1 1 1 1 1 2 3 4 5 5 6 6 7 6 6 5 6 7 7 7 7 6 6 6 6 5 4 4 4 4 5 5 6 6 6 7 7 8 8 8 9
1 1 2 2 2 2 2 2 3 4 5 6 7 7 7 7 7 6 7 7 7 7 7 7 7 6 6 6 5 5 5 5 5 6 7 7 8 8 8 8 9 9 10
2 3 3 3 3 3 3 4 5 5 6 7 8 8 8 8 8 8 8 8 8 8 8 8 7 6 6 6 7 7 6 7 7 7 7 7 8 9 9 10 10 10 11
4 4 4 4 4 4 4 5 6 7 7 8 8 8 9 9 9 9 10 10 9 8 8 8 8 8 8 7 8 8 8 8 8 8 8 9 9 9 10 10 11 11 11
5 5 5 5 5 5 6 7 7 8 9 9 9 9 10 10 10 10 10 10 10 10 10 9 9 9 9 9 9 9 9 10 9 9 9 10 10 10 10 10 11 12 12
5 6 6 6 7 7 8 8 8 9 10 10 10 11 11 11 11 12 11 11 11 11 11 10 10 10 10 10 10 11 11 11 10 10 9 9 9 10 11 11 11 12 12
7 7 8 8 8 9 9 10 10 10 10 11 11 12 12 12 12 13 13 12 12 12 12 11 11 10 11 12 12 12 11 11 11 11 10 10 10 10 11 11 11 12 12
8 9 9 9 10 11 11 11 11 11 12 12 12 13 13 13 13 14 14 13 13 13 13 13 13 13 13 13 12 13 12 11 11 11 11 11 11 11 12 12 12 13 14
10 10 11 11 12 12 12 12 13 13 13 13 13 14 14 14 15 15 15 14 14 14 14 15 16 16 15 15 15 14 14 14 13 12 13 12 13 13 13 13 13 14 14
12 12 11 12 13 13 13 13 14 15 14 14 15 15 16 16 16 16 16 17 17 16 16 16 17 18 18 17 17 16 16 15 14 14 14 15 15 15 14 14 14 15 14
14 14 13 14 14 14 15 15 16 16 17 17 17 18 18 18 18 18 19 19 19 19 18 17 18 19 19 19 18 17 17 17 17 16 16 16 16 16 16 16 16 16 16
16 16 16 17 16 17 17 18 19 19 19 19 20 20 21 20 20 20 20 21 21 21 20 20 20 20 20 20 19 19 19 19 19 19 19 18 18 18 18 18 18 18 18
17 18 18 19 19 19 19 20 21 21 22 22 22 22 22 21 21 21 22 22 22 22 23 22 22 22 22 22 22 22 21 21 21 21 21 21 21 21 21 21 21 20 20
18 19 19 20 20 21 21 21 22 23 24 23 23 23 23 22 21 21 22 23 23 24 24 24 24 24 23 23 23 23 23 23 23 23 23 23 23 23 24 24 23 23 22
19 19 20 21 21 21 22 22 23 23 23 24 24 23 23 22 23 23 24 25 25 25 25 25 25 25 24 24 25 24 24 24 24 24 24 24 25 25 25 25 25 24 24
19 20 21 22 22 22 23 23 23 23 23 23 24 24 24 25 25 26 26 26 25 25 24 24 24 24 24 24 25 25 24 25 25 25 25 26 26 26 25 25 25 25 25
22 22 22 23 24 24 24 25 25 24 24 25 25 26 26 26 27 26 26 26 26 26 26 26 26 26 26 25 24 24 24 24 25 25 26 26 26 26 26 26 26 26 27
23 24 25 25 25 26 26 26 26 26 26 26 26 26 26 26 27 27 27 27 27 27 27 28 28 28 28 27 26 26 26 26 26 27 28 28 28 27 27 27 27 28 28
24 24 25 25 26 27 27 28 27 27 27 27 27 27 27 28 28 28 28 28 28 28 29 29 29 30 30 29 28 28 27 27 28 29 29 29 29 29 29 29 29 30 30
25 25 25 26 27 28 28 28 28 28 28 28 28 29 29 29 29 30 30 30 30 30 30 31 31 31 31 31 31 30 30 30 31 31 30 30 30 30 30 30 31 31 31

GEFSMA_500_meanwind_348.txt.gz
Wind_Speed
4 4 5 4 4 5 5 5 5 5 5 5 5 5 5 5 5 5 5 6 6 5 5 4 4 4 4 3 3 4 4 4 4 5 5 6 5 5 5 5 6 7 7
3 3 4 3 3 3 4 4 4 5 4 4 5 5 5 5 5 5 5 6 5 5 5 4 4 4 4 4 4 3 4 4 5 5 5 5 5 6 6 5 6 6 6
2 2 3 2 2 2 3 3 3 3 4 5 4 5 5 5 5 5 6 6 6 6 5 5 5 5 4 4 4 4 4 4 4 5 5 4 4 6 6 6 6 6 7
1 1 1 1 1 1 1 2 3 3 4 4 5 5 6 6 6 6 6 6 6 6 5 5 5 5 5 5 4 4 5 4 4 5 5 5 5 6 7 7 7 7 7
1 1 1 1 1 1 1 2 3 3 3 4 5 6 6 6 7 7 7 6 6 5 5 5 5 5 5 5 5 5 5 5 5 5 5 5 6 7 7 7 7 8 8
2 2 2 2 3 2 3 3 3 3 4 4 5 6 6 7 7 7 7 7 6 6 6 5 6 6 6 6 5 5 5 5 5 5 5 6 6 7 7 8 7 8 8
3 3 3 3 3 4 4 3 3 4 5 6 6 7 7 7 7 7 7 7 7 7 7 7 7 7 6 6 6 6 5 5 5 6 6 6 7 7 8 8 9 9 9
4 4 4 4 4 4 4 4 5 5 6 7 7 8 9 9 8 8 8 8 8 8 7 7 7 7 7 7 7 7 6 6 6 7 7 7 7 7 8 9 10 10 10
5 5 5 5 5 4 5 5 6 6 7 8 9 9 9 9 9 9 9 9 10 9 8 8 8 8 8 7 8 7 8 7 7 7 7 7 8 8 9 9 10 11 11
7 7 6 6 6 5 6 7 7 8 8 9 9 9 9 10 9 10 10 10 10 9 9 9 8 8 8 9 9 9 9 9 9 8 7 8 8 9 9 9 10 11 11
9 8 7 7 7 7 7 8 8 9 9 9 9 10 10 9 10 10 10 10 10 10 10 9 9 9 9 9 9 10 10 10 9 9 8 9 9 9 9 10 10 11 11
10 10 9 8 9 9 9 9 9 10 10 10 10 11 11 10 11 11 11 11 11 11 11 11 11 10 10 10 10 10 11 11 11 11 10 10 10 10 11 11 11 12 12
10 10 10 10 10 10 10 10 11 11 11 11 11 11 12 12 12 12 13 13 12 12 13 13 13 12 12 12 12 12 12 12 12 12 11 11 11 11 12 13 12 12 12
11 11 12 12 12 12 12 12 12 12 13 13 13 13 13 13 13 13 14 14 14 14 15 15 14 14 14 14 14 13 14 14 14 14 13 13 13 13 12 13 13 14 14
13 13 13 14 14 14 14 14 14 14 14 14 15 15 15 14 15 15 16 17 16 15 15 16 16 15 15 16 16 16 16 15 15 15 15 14 14 14 14 14 14 14 14
14 14 15 15 16 16 16 16 16 16 16 15 16 17 17 17 17 17 17 18 18 17 16 17 17 17 17 17 17 17 17 17 16 16 16 15 15 15 15 15 15 15 15
16 16 17 17 17 18 18 18 18 17 17 17 18 18 18 18 19 19 19 19 19 18 18 18 18 19 19 19 19 19 18 18 18 18 17 17 16 16 16 16 16 17 17
17 18 18 18 19 19 19 19 19 19 19 20 20 20 19 19 20 20 20 20 20 19 19 20 20 21 21 20 20 20 19 19 19 19 19 19 18 18 18 18 18 18 18
19 19 19 19 20 20 20 20 21 21 21 21 21 21 21 21 21 21 20 21 21 21 21 21 22 22 22 21 21 21 21 20 20 20 20 20 19 20 20 20 20 21 20
18 19 20 21 21 22 22 21 22 22 22 22 22 23 22 22 22 22 22 22 22 22 22 22 23 23 23 23 23 23 22 22 22 22 22 22 22 22 22 22 22 23 23
19 20 20 21 22 23 23 24 24 23 23 24 23 24 24 23 23 23 23 23 23 22 22 23 23 23 24 24 24 24 24 24 24 24 23 24 24 24 25 24 24 24 24
20 21 22 22 23 23 24 24 25 25 24 24 24 24 24 24 24 24 24 24 23 23 23 24 23 24 24 25 25 25 25 25 26 26 26 26 27 26 26 26 26 26 26
21 22 23 24 23 23 24 24 24 25 25 25 26 25 26 26 25 25 24 24 24 25 25 25 25 25 26 25 26 26 26 26 27 27 27 27 28 28 28 28 28 28 29
23 23 24 24 25 25 25 25 25 26 26 26 26 26 27 26 26 25 25 25 26 26 27 27 28 28 28 28 27 27 28 28 28 28 28 28 28 29 30 29 30 30 30
24 25 26 26 26 26 26 26 26 27 27 28 28 28 28 28 28 28 28 28 28 28 29 29 29 30 30 29 29 30 30 30 29 29 29 29 29 29 30 30 30 31 31
25 26 26 26 26 26 26 27 27 28 28 29 29 30 30 30 30 29 29 29 30 30 31 31 31 31 31 31 31 31 31 32 31 31 31 31 31 31 31 31 32 32 32

GEFSMA_500_meanwind_354.txt.gz
Wind_Speed
3 4 4 4 4 5 5 6 6 7 7 8 9 8 8 7 7 6 6 6 6 6 6 5 5 6 7 6 6 5 4 4 5 4 4 4 4 4 4 5 5 5 5
3 3 3 3 4 5 5 5 5 6 7 7 8 8 8 7 7 7 6 6 6 7 7 6 6 7 6 6 6 6 4 4 4 4 4 4 4 4 4 4 4 5 5
3 4 4 4 4 4 4 4 5 5 6 6 7 8 7 7 8 8 6 6 6 7 7 7 7 7 6 7 7 6 5 4 5 5 4 5 4 4 4 4 5 5 5
4 4 4 4 4 4 4 4 5 5 5 6 6 7 7 7 8 8 7 7 7 7 7 7 7 7 7 7 7 7 7 6 5 5 4 4 4 4 4 4 5 5 5
4 5 5 5 5 5 5 5 5 5 5 6 6 7 7 8 8 8 8 8 7 7 8 7 7 7 7 8 7 7 7 7 6 5 4 4 4 5 4 4 5 6 6
5 6 6 6 6 6 6 5 6 6 6 6 7 7 8 8 8 8 8 8 8 8 8 8 8 8 8 7 7 7 7 7 6 5 5 5 5 5 5 6 6 6 7
7 7 7 7 7 7 7 7 6 6 6 7 7 8 8 9 8 8 8 8 8 8 8 8 7 7 7 7 8 7 7 7 7 6 5 5 5 6 6 7 7 7 7
7 7 7 7 7 7 8 8 7 7 7 7 8 8 9 9 9 9 9 9 9 9 9 8 8 8 8 8 8 8 8 8 8 7 7 7 7 7 6 7 8 8 8
8 7 8 8 7 7 8 8 8 8 8 8 9 9 10 10 9 10 10 10 10 10 10 10 9 9 9 9 9 9 8 9 9 9 8 7 7 7 7 7 8 8 9
9 9 9 9 9 8 8 8 9 9 9 9 10 10 10 10 10 11 11 11 11 10 10 10 10 10 10 9 9 10 10 10 10 9 8 8 9 9 9 9 9 9 9
10 10 10 10 10 10 10 9 10 10 11 10 10 10 11 11 11 11 11 11 11 11 11 10 11 11 11 11 10 10 10 10 10 10 10 10 9 10 10 10 10 10 10
11 11 11 11 11 11 11 11 11 11 11 11 11 11 12 12 13 12 12 12 12 13 12 12 12 12 12 13 13 12 11 11 11 11 11 10 10 10 11 11 11 11 11
12 12 12 12 12 12 12 12 13 12 13 12 13 13 13 14 14 14 14 13 13 14 14 13 13 14 14 14 14 13 13 12 12 12 12 11 11 11 11 11 11 12 12
14 14 14 14 14 13 13 14 14 14 14 14 14 15 15 15 15 15 15 15 15 15 15 15 14 15 15 14 14 14 14 13 13 13 13 13 12 12 12 12 12 12 12
15 15 15 15 16 15 15 15 15 16 16 16 16 16 16 16 17 17 17 17 17 16 16 16 15 14 15 15 15 15 15 15 14 14 14 14 13 13 13 13 14 13 13
16 16 16 17 17 17 17 17 17 17 17 18 18 18 18 18 19 19 19 18 18 18 17 17 16 15 15 16 16 16 16 16 16 16 16 15 15 14 14 14 14 14 14
17 17 18 18 18 18 19 19 18 18 18 18 18 18 19 19 20 20 19 20 19 19 19 19 18 17 17 17 18 17 17 17 17 18 18 17 16 16 15 14 14 15 15
19 19 19 19 19 20 20 20 20 19 19 19 20 20 20 21 21 21 21 21 21 21 21 21 20 19 18 18 19 19 19 19 19 19 19 19 18 18 17 16 16 16 17
20 20 20 20 21 21 21 20 20 20 20 21 22 22 22 22 22 23 23 23 23 23 23 23 22 21 21 21 20 20 20 20 20 20 20 20 20 20 19 19 19 19 19
21 21 21 21 21 22 22 21 21 21 21 23 24 24 24 23 24 24 24 24 25 24 24 24 24 23 23 23 22 22 22 22 22 22 21 21 21 21 21 21 21 21 21
22 23 22 22 22 23 23 23 23 23 23 24 24 25 25 25 25 26 25 25 25 26 25 25 25 24 24 25 24 24 24 24 24 24 24 24 23 23 23 23 23 23 23
23 24 23 23 24 23 23 23 23 24 25 25 26 25 25 26 27 27 27 26 26 26 27 26 26 26 26 26 26 26 26 26 26 26 26 26 26 25 25 26 25 25 24
24 24 24 24 24 24 24 25 25 26 26 26 26 27 28 27 28 29 29 28 27 27 27 27 27 27 28 27 28 28 28 29 28 27 28 27 27 27 27 27 27 27 27
25 25 24 25 25 25 26 27 27 27 27 28 28 28 28 28 29 29 29 29 29 29 28 28 28 27 28 29 29 29 30 30 29 28 29 28 28 27 27 27 27 27 27
26 26 26 26 26 27 27 28 29 28 28 29 29 29 28 28 29 29 29 29 29 29 29 28 28 29 29 30 31 32 31 31 30 29 29 29 29 28 28 28 28 28 27
28 27 27 27 27 27 28 28 29 29 29 29 29 29 29 29 29 29 29 29 29 29 28 29 30 30 31 31 32 32 32 32 32 31 30 31 31 30 30 30 30 30 30

GEFSMA_500_meanwind_360.txt.gz
Wind_Speed
4 4 4 4 4 5 5 6 6 6 6 6 5 5 4 4 3 3 2 3 3 3 3 3 3 3 3 3 3 4 4 4 3 2 3 4 4 5 5 6 6 7 7
3 3 3 3 3 3 4 5 5 5 5 5 4 4 4 4 4 3 3 3 4 4 4 3 3 3 4 4 4 4 4 3 3 2 3 4 5 5 5 6 6 7 7
3 3 3 2 2 3 3 4 4 4 4 4 4 4 4 4 3 3 3 4 4 4 4 3 3 3 3 4 4 4 4 4 3 3 4 5 5 5 5 6 7 7 7
3 4 3 2 2 2 3 3 3 3 3 3 3 4 5 5 4 4 4 4 4 5 4 4 3 3 3 4 4 4 4 4 4 5 5 5 5 5 5 6 7 8 8
3 3 3 2 2 2 3 3 3 3 3 4 4 4 5 5 5 4 5 5 5 5 5 4 4 4 4 4 4 4 5 5 5 5 5 6 6 6 6 6 7 8 8
3 3 3 3 3 3 3 4 4 4 5 4 5 5 5 5 6 6 6 5 6 5 5 5 5 5 5 5 5 5 5 5 5 6 6 7 7 8 7 7 7 8 8
3 3 4 4 3 4 4 5 5 5 6 6 6 6 6 6 7 7 7 7 7 6 6 6 5 6 6 6 6 6 6 6 6 7 7 7 7 7 8 8 8 8 9
3 4 4 4 4 4 5 5 5 6 7 7 7 7 7 8 8 8 8 8 8 7 7 7 7 7 7 7 7 7 7 7 7 7 7 7 7 7 8 8 9 9 9
3 4 5 5 5 6 6 6 7 7 8 8 8 8 8 8 8 9 9 9 9 9 9 8 8 9 9 9 8 9 9 8 8 8 8 8 7 7 8 9 9 9 10
4 5 6 6 7 7 7 7 8 8 9 9 9 9 9 9 10 10 10 10 10 10 11 10 10 10 10 10 10 9 9 10 9 9 9 9 8 8 7 8 9 10 10
6 6 7 8 8 8 8 9 9 9 10 10 11 10 10 10 11 11 11 11 11 12 12 12 12 12 12 11 11 10 10 10 10 10 10 9 9 8 8 8 9 10 10
7 7 8 8 9 10 10 11 11 11 11 11 12 12 12 12 12 12 12 12 12 13 13 13 13 13 13 12 12 12 12 11 11 10 10 9 9 9 9 9 10 10 10
9 10 10 10 11 11 12 12 13 13 13 13 13 13 13 13 13 13 13 13 13 13 14 14 13 14 14 13 14 13 13 12 11 11 11 10 10 10 11 11 11 11 12
11 11 12 12 12 12 13 13 14 14 14 14 14 14 14 14 14 15 14 14 14 14 15 14 14 13 14 14 14 14 14 13 13 12 12 12 12 12 13 13 13 13 13
12 13 14 14 14 14 15 15 14 14 15 15 15 16 16 15 15 16 16 16 16 16 16 15 15 16 16 15 15 15 15 14 14 14 13 14 14 14 14 14 14 14 14
14 15 15 15 15 15 15 15 15 15 15 16 17 17 17 17 17 17 17 17 17 17 17 17 17 17 16 17 16 16 16 15 16 15 14 14 15 15 15 15 15 15 16
15 15 15 16 16 16 16 16 16 17 17 17 17 17 18 19 18 18 19 19 19 19 19 18 18 18 17 18 18 18 17 17 17 16 16 16 16 16 17 16 16 17 17
16 16 17 17 17 17 17 17 17 18 18 18 18 19 19 19 19 19 20 20 20 20 20 20 19 20 19 20 20 19 19 18 18 18 18 18 18 18 19 18 19 19 18
17 18 18 18 18 18 19 19 19 19 19 19 20 20 20 20 21 20 20 21 21 22 21 21 21 22 22 22 22 22 21 20 20 20 20 20 20 20 20 20 20 20 20
19 19 19 19 20 20 21 21 21 21 21 21 21 21 21 21 21 22 22 23 23 22 22 22 23 23 23 23 23 23 23 23 23 22 22 23 23 22 22 23 23 23 23
21 21 21 21 22 22 22 22 22 22 22 22 22 22 22 22 22 23 23 23 24 24 25 25 24 24 25 24 24 24 24 24 24 24 25 25 26 26 26 25 25 25 25
23 23 22 22 22 22 22 22 22 23 23 23 23 24 24 23 23 24 24 25 26 27 26 26 26 26 27 27 27 26 26 26 26 27 27 26 27 28 28 28 27 27 27
24 23 23 23 23 23 22 23 23 23 24 24 24 25 24 24 24 25 25 26 26 26 26 26 26 26 27 27 27 28 28 28 28 28 29 29 29 30 30 30 30 29 30
24 24 23 23 23 24 24 24 24 25 25 25 25 25 25 24 24 25 25 26 26 26 26 26 26 27 27 27 28 28 28 29 29 29 30 30 30 31 31 32 32 32 31
25 25 25 25 25 25 26 26 26 26 26 26 26 26 26 26 26 26 27 27 27 26 27 28 28 28 28 28 29 29 30 30 30 31 31 31 31 32 32 33 33 33 33
26 26 26 26 26 27 27 27 26 26 27 27 27 27 27 27 27 27 27 27 27 27 28 28 29 28 29 29 30 31 31 31 31 32 32 32 32 33 33 33 33 33 34

GEFSMA_500_meanwind_366.txt.gz
Wind_Speed
3 3 3 3 3 3 3 3 3 3 3 3 3 3 3 3 3 3 3 3 3 3 3 4 4 4 5 5 5 5 5 5 5 5 5 6 6 6 7 7 7 7 7
3 2 3 2 3 2 2 2 3 3 3 3 2 2 3 3 3 4 4 4 4 4 4 4 4 5 5 5 5 5 5 5 5 6 6 5 5 6 7 7 7 7 7
3 2 2 2 1 1 1 2 2 3 3 3 2 2 3 4 4 4 5 5 5 5 5 5 5 5 5 6 6 5 5 5 6 6 6 6 6 7 7 8 8 8 8
2 2 2 1 1 1 1 2 3 3 3 3 3 4 4 5 5 6 6 6 6 7 6 6 6 6 6 6 6 6 6 6 6 7 7 7 7 8 8 8 9 9 8
1 1 1 2 2 2 2 3 4 5 4 4 4 5 5 6 6 6 7 7 7 7 7 7 7 6 6 7 7 7 7 7 8 8 8 9 9 9 8 9 9 9 8
1 1 2 2 2 3 3 4 5 6 6 5 6 6 6 7 7 7 7 8 8 8 8 8 8 8 8 8 8 8 8 8 8 9 10 9 9 9 8 9 9 10 9
2 3 3 3 4 4 4 5 6 6 6 6 7 7 8 8 9 9 8 9 9 9 9 10 10 10 10 10 10 10 10 10 10 10 10 9 9 9 9 9 9 9 9
3 3 4 4 5 5 5 6 6 7 7 7 8 8 9 9 9 9 9 10 10 10 10 11 11 12 13 12 12 11 12 11 11 11 10 10 10 11 10 9 9 8 9
4 4 5 6 6 7 7 8 8 8 9 9 10 10 10 11 11 11 11 11 11 11 12 12 12 13 13 13 12 12 12 11 12 11 11 11 11 11 10 9 9 9 10
5 6 6 7 7 8 8 9 10 10 10 10 11 12 12 12 12 12 13 12 13 13 13 13 13 14 13 14 13 13 13 12 11 11 11 11 11 11 11 10 10 10 10
6 7 7 8 8 9 10 10 11 11 11 12 12 13 13 13 13 14 14 15 15 15 15 15 14 14 14 14 13 13 13 12 12 12 12 11 11 11 11 11 11 11 11
8 8 8 9 9 10 11 12 12 13 13 13 14 14 14 14 14 15 15 16 17 17 17 16 15 15 15 15 14 14 14 13 13 13 13 13 13 12 12 12 12 12 12
9 9 10 10 10 12 13 13 13 14 14 15 15 15 15 16 16 16 17 17 17 17 17 17 17 17 16 15 15 15 15 14 14 14 14 14 14 14 14 14 13 13 14
10 10 11 12 12 13 13 14 14 15 15 16 16 16 17 17 18 18 18 18 19 18 18 18 18 18 17 17 16 15 16 16 16 15 15 15 15 15 16 15 14 15 15
12 12 13 14 14 14 15 16 16 16 16 17 17 17 18 18 19 20 20 20 20 20 19 20 19 18 18 18 17 17 17 17 17 16 16 16 16 16 17 18 17 16 16
13 14 15 15 16 16 17 17 17 17 17 18 18 19 19 19 19 20 20 20 21 21 20 20 19 19 19 18 18 18 18 18 18 18 18 18 18 17 17 18 18 18 18
15 16 16 17 17 18 18 18 18 19 19 19 20 20 20 21 21 21 21 21 21 20 20 20 21 21 21 20 19 19 20 20 20 19 19 19 20 19 19 19 20 20 21
17 17 18 18 19 19 20 20 20 20 21 21 21 22 22 22 22 23 22 22 22 21 21 21 22 22 23 23 22 21 22 22 21 21 22 22 22 22 21 21 22 22 22
18 19 19 19 20 21 21 21 21 22 22 22 23 23 23 23 23 24 23 22 22 23 23 23 22 23 23 23 23 23 24 24 24 24 24 24 24 24 23 23 23 24 24
20 20 20 21 21 22 22 23 23 24 24 24 24 24 24 24 24 24 23 24 24 24 24 25 24 24 24 24 25 25 25 25 25 26 26 26 26 26 25 25 25 25 26
22 22 22 22 22 22 23 23 24 24 23 23 24 24 24 24 24 24 24 24 24 25 25 25 24 24 25 25 26 25 25 26 26 27 27 27 27 27 26 26 27 27 27
23 23 23 23 23 24 24 24 24 24 24 24 24 25 25 25 25 25 24 25 25 25 25 25 25 26 26 27 28 28 28 27 27 28 28 28 28 28 28 28 28 28 29
24 24 25 24 24 24 24 25 25 25 25 25 26 25 25 25 26 26 26 26 26 26 26 26 26 27 28 28 28 29 29 28 28 29 30 30 30 30 30 30 30 31 30
24 25 25 25 25 25 25 25 24 25 26 26 27 26 26 26 27 27 27 27 27 27 27 27 27 28 29 29 29 29 30 31 31 32 32 32 32 33 33 32 32 32 32
25 25 25 26 26 25 25 25 25 25 26 26 26 27 27 28 28 28 28 28 28 29 29 29 29 29 30 30 30 31 31 31 31 31 32 32 31 32 33 33 33 33 33
26 26 26 26 26 26 25 26 26 25 25 27 27 28 28 28 28 28 29 29 30 30 29 29 30 30 30 31 31 31 31 32 31 32 33 33 32 32 32 33 33 33 33

GEFSMA_500_meanwind_372.txt.gz
Wind_Speed
3 2 2 2 2 2 2 2 2 1 1 2 2 1 1 1 2 2 3 3 3 4 4 5 5 5 5 5 5 5 6 6 6 7 7 6 6 6 7 7 8 9 9
2 2 1 1 2 2 1 1 1 1 1 1 1 1 1 2 2 3 3 3 4 4 5 6 6 6 5 6 6 6 6 6 7 7 7 7 8 7 8 9 9 10 10
1 1 1 1 1 1 0 0 1 1 2 1 1 2 2 3 3 3 4 5 5 6 6 7 7 7 6 7 7 7 7 7 7 8 8 8 8 9 9 10 10 10 10
1 1 1 1 0 0 1 1 2 2 2 2 2 3 3 4 4 5 5 6 6 7 7 8 8 9 8 8 8 9 9 9 9 9 8 9 9 9 8 8 9 9 9
1 1 0 1 0 0 1 2 2 3 3 3 3 3 4 4 5 6 7 7 7 8 9 9 10 10 10 10 10 10 10 10 10 10 10 9 9 8 8 8 8 8 9
1 1 1 1 1 1 2 3 3 4 4 4 4 5 6 6 7 8 8 9 9 9 10 10 11 11 11 11 11 11 11 11 11 11 10 10 9 9 9 9 9 9 9
2 1 2 3 3 3 3 3 4 5 5 5 6 6 7 8 9 9 10 10 10 10 10 11 12 12 12 12 12 12 12 12 12 11 11 11 10 10 10 10 9 10 10
3 2 3 4 4 3 4 4 5 5 6 7 7 8 9 10 10 10 10 10 11 11 11 11 12 12 13 12 12 12 13 12 12 12 12 12 11 11 11 11 11 11 11
3 3 3 4 4 4 5 5 6 7 7 8 8 9 10 11 11 11 12 12 13 13 14 14 13 13 13 14 13 13 12 12 13 13 13 12 12 11 11 11 11 11 12
4 4 4 5 6 6 6 7 8 9 9 9 10 11 11 12 12 13 13 14 15 15 16 16 16 15 15 14 14 14 14 13 13 13 13 13 13 13 13 12 11 12 12
5 6 6 7 7 7 8 9 9 10 10 11 11 12 12 13 14 15 15 15 16 17 17 17 17 17 16 16 16 15 15 14 14 14 14 14 14 14 14 13 13 13 12
6 7 8 8 9 9 9 10 10 11 12 12 13 13 13 14 15 16 16 16 17 18 18 19 19 18 17 17 17 17 16 15 15 14 15 15 15 15 14 14 14 13 13
7 8 9 9 10 10 11 11 12 12 13 13 14 14 14 15 16 17 18 18 19 19 19 20 20 20 19 18 18 17 17 16 16 16 16 16 16 15 15 15 15 14 14
9 10 11 11 12 12 13 13 13 14 14 15 15 15 16 17 17 18 18 19 19 20 20 21 21 21 20 19 18 18 18 17 17 17 17 17 17 16 17 17 16 16 15
11 12 13 13 13 14 14 14 14 15 16 16 16 17 18 18 19 20 20 20 21 21 21 21 21 20 20 19 19 19 19 18 18 18 18 18 18 17 18 18 18 18 17
13 13 14 15 15 15 15 15 16 16 17 17 18 19 20 20 21 21 21 22 22 23 22 22 21 22 21 21 21 20 20 19 19 19 18 19 19 19 19 19 20 20 20
15 15 15 16 16 17 17 17 17 18 18 19 20 21 21 22 23 23 23 23 23 23 23 23 22 22 22 22 21 21 21 21 21 20 20 20 20 20 20 21 21 21 21
16 16 17 17 18 18 19 19 19 20 20 20 21 22 22 23 23 24 24 24 23 22 22 22 23 23 22 23 23 22 22 23 22 22 21 21 21 21 22 22 22 23 23
18 18 19 19 20 21 21 21 21 22 22 22 22 23 23 24 24 24 24 24 23 22 22 22 23 24 23 23 24 24 23 23 23 23 23 23 23 23 24 23 24 24 24
20 21 21 22 22 22 22 22 23 23 23 23 24 24 24 24 25 25 25 24 23 23 23 23 23 24 24 24 25 25 25 25 25 25 25 25 25 25 25 25 26 26 26
23 23 23 23 24 24 24 24 24 24 24 25 25 25 25 25 26 25 25 24 23 23 23 23 24 24 24 25 25 26 26 27 26 26 26 27 27 27 27 27 28 28 28
24 25 25 25 25 24 25 25 26 26 25 25 25 25 25 25 26 25 25 24 23 24 24 24 24 25 25 26 26 27 27 28 28 28 27 28 28 28 29 29 30 30 30
26 25 26 26 25 25 26 26 26 27 26 26 26 26 25 25 25 25 24 24 24 24 25 25 25 26 27 27 27 28 28 28 29 29 29 29 30 30 30 31 31 31 31
27 27 27 26 25 25 26 26 27 27 26 26 27 26 26 26 25 24 24 25 25 25 26 26 26 27 27 28 29 29 29 29 30 30 30 30 31 31 31 31 31 31 31
28 28 27 26 26 26 26 26 27 27 27 27 27 27 26 26 26 25 25 26 26 27 27 27 28 28 28 29 29 30 30 31 31 31 31 31 31 31 31 31 30 30 30
28 28 28 27 26 26 26 26 26 27 27 27 27 27 27 26 26 26 26 27 27 28 28 29 29 29 29 29 29 29 30 30 31 31 31 31 32 32 32 31 31 31 31

GEFSMA_500_meanwind_378.txt.gz
Wind_Speed
1 1 1 1 1 2 3 3 3 4 4 5 4 3 3 2 2 3 4 4 4 4 5 5 5 6 6 6 6 6 6 6 6 6 5 5 5 5 5 6 6 7 7
1 2 2 1 1 2 3 3 3 4 4 5 5 4 3 2 3 3 4 5 5 5 6 6 6 6 7 7 7 7 7 7 7 7 6 6 6 5 6 6 6 7 8
2 2 2 2 2 2 3 3 3 4 4 4 4 4 4 4 4 4 5 5 6 6 7 7 7 7 7 7 8 8 8 9 9 8 7 7 7 7 7 7 7 7 8
2 2 2 2 2 3 3 3 3 4 5 5 4 4 4 5 5 6 6 6 7 7 8 8 8 8 8 8 8 9 9 10 9 8 8 8 8 8 8 8 8 8 8
2 2 2 2 3 3 3 3 3 4 4 5 5 5 5 5 6 6 7 7 8 8 8 9 9 9 10 10 10 10 10 10 10 9 9 9 8 8 9 9 9 9 9
3 3 3 3 3 3 3 3 3 4 5 5 6 6 6 6 7 8 8 8 9 9 9 10 10 11 12 11 11 11 11 10 10 10 9 9 9 9 9 10 10 11 11
3 3 3 3 3 3 3 4 4 4 5 6 6 6 7 8 9 9 9 9 10 10 11 11 11 12 13 12 12 12 12 11 10 11 11 10 10 10 10 10 11 12 12
3 3 3 3 3 4 4 5 5 5 6 7 7 8 8 9 9 10 10 10 11 11 12 12 12 12 13 13 13 12 12 11 11 11 11 11 11 10 11 11 11 11 11
4 4 5 5 5 6 7 7 7 7 7 8 9 10 10 10 10 11 11 11 12 13 13 13 14 13 14 14 14 13 12 12 12 12 12 12 12 12 12 12 11 11 10
5 6 7 7 7 7 8 8 8 8 8 9 10 11 12 12 12 12 12 13 13 14 15 15 15 15 15 15 14 13 13 13 13 13 13 13 13 13 13 13 12 12 11
7 7 8 8 9 9 9 10 10 10 10 11 11 12 13 13 13 13 14 14 14 15 16 16 17 17 16 16 15 15 14 14 15 14 14 15 15 14 15 14 14 13 13
8 8 9 9 9 10 11 11 11 11 12 12 13 13 14 14 15 15 16 16 16 16 17 17 18 18 17 17 17 16 16 16 16 15 15 15 16 16 16 16 15 15 15
9 9 9 10 11 11 12 12 12 13 13 14 15 15 16 16 16 17 17 17 17 18 18 18 18 18 18 18 18 17 17 17 17 17 17 17 17 17 17 17 17 16 16
10 10 11 12 12 13 13 14 14 15 15 16 16 17 17 18 18 18 18 19 19 19 20 19 20 20 19 18 18 18 17 17 17 17 17 18 18 18 17 18 18 17 17
12 12 13 13 14 15 15 16 16 17 17 18 18 19 19 19 20 20 20 20 21 21 21 22 21 20 19 19 19 18 18 18 18 19 19 19 19 19 19 19 18 18 17
14 14 15 16 17 17 18 18 18 19 19 19 20 20 21 21 21 21 21 22 22 23 23 23 22 21 20 21 20 20 20 20 20 20 20 20 20 20 19 19 19 19 18
16 17 17 18 19 19 19 20 20 21 21 21 21 22 22 22 22 22 23 23 24 24 24 24 24 23 22 22 21 21 21 21 21 21 21 21 21 21 21 20 20 20 20
19 19 19 20 21 21 21 22 22 22 22 23 23 24 24 24 24 24 24 25 25 25 25 24 24 24 23 22 22 22 22 22 22 22 22 22 22 22 21 21 21 21 21
21 20 20 21 22 23 23 23 24 24 24 24 24 25 25 25 25 25 26 26 26 26 26 26 25 24 23 23 24 24 24 23 23 22 22 22 22 22 22 22 22 23 22
21 21 22 22 23 23 24 24 24 25 26 26 26 26 26 25 26 27 26 26 27 27 26 26 25 24 24 24 24 24 24 24 24 23 23 23 23 23 23 23 24 24 24
22 23 23 23 24 24 24 25 26 27 26 27 27 27 27 26 27 27 27 27 28 27 27 26 25 24 24 24 25 25 24 25 25 24 24 24 24 24 24 25 25 26 26
23 23 24 24 25 25 26 26 27 28 28 28 28 28 27 27 27 28 28 28 28 28 27 26 25 25 24 25 26 26 26 26 26 26 26 26 26 26 26 26 26 27 27
25 25 25 26 26 26 26 27 28 28 28 28 28 28 28 28 28 29 28 28 28 28 28 27 26 26 26 26 26 26 26 26 26 26 26 27 27 27 27 27 28 28 28
26 26 26 27 26 27 27 27 28 28 28 28 28 28 28 28 28 28 28 27 28 28 28 28 28 27 27 27 27 27 26 26 26 27 27 27 27 28 28 28 29 29 29
27 27 27 27 27 27 27 28 28 28 27 29 29 28 28 28 28 28 28 28 28 28 28 28 29 28 28 28 27 27 27 28 28 28 28 28 28 28 28 29 29 29 29
27 27 27 27 27 27 28 28 28 28 28 28 28 28 28 28 28 28 28 28 28 28 29 29 29 28 28 28 28 28 28 28 28 28 28 28 28 28 28 29 29 29 29

GEFSMA_500_meanwind_384.txt.gz
Wind_Speed
2 3 2 1 1 2 2 2 3 2 2 2 2 2 2 1 1 1 2 2 2 2 2 2 2 2 2 3 3 3 3 4 4 4 4 5 5 6 6 6 7 8 8
3 2 2 1 1 1 1 2 2 2 2 3 2 1 1 1 1 1 2 3 3 4 3 3 3 3 3 3 4 4 4 4 4 5 5 5 6 6 7 7 7 8 8
2 2 1 1 1 1 1 1 1 2 2 1 1 2 2 2 1 2 2 3 3 4 4 5 5 4 4 4 5 5 5 6 6 6 6 6 6 7 7 8 8 8 9
2 2 1 1 1 1 0 0 1 1 2 2 1 2 2 2 2 2 3 3 4 5 5 5 5 5 5 6 6 6 6 8 8 7 8 8 8 8 8 9 9 9 9
3 2 1 1 1 0 1 1 1 1 2 3 3 3 3 3 4 3 4 4 5 5 6 6 6 6 7 7 8 8 8 8 9 8 8 9 9 10 9 9 10 10 10
2 1 1 1 0 1 1 1 1 2 3 3 4 4 4 4 4 5 5 6 6 6 7 7 8 8 8 8 9 10 10 9 9 9 10 10 11 11 11 10 11 11 12
1 1 1 1 1 1 1 2 2 2 3 3 4 4 4 5 5 5 6 7 7 8 8 8 8 9 9 9 10 11 11 11 10 10 11 11 11 11 11 11 11 12 12
0 1 1 2 2 2 2 2 3 3 4 5 5 5 5 6 7 7 7 8 8 9 9 10 11 10 10 10 11 11 11 12 11 11 11 11 12 12 12 12 12 12 12
2 2 2 3 3 4 4 4 4 5 6 7 7 7 7 7 7 8 9 9 10 10 10 11 12 12 12 12 12 12 13 13 13 12 12 12 12 12 13 13 13 13 13
3 4 4 4 4 5 5 6 6 7 7 7 8 8 8 8 9 9 9 10 11 12 12 12 12 13 13 14 14 14 14 14 14 14 13 13 12 12 12 13 13 13 14
5 5 6 6 6 7 7 7 7 8 8 8 9 9 10 10 10 11 11 12 12 12 13 13 14 13 14 14 14 14 14 14 15 15 15 14 14 13 14 14 14 15 15
6 7 7 8 8 9 9 9 9 9 10 10 10 11 11 11 11 12 12 13 13 14 14 14 14 15 15 15 15 15 14 14 15 15 16 17 16 16 16 16 16 16 15
8 9 9 9 10 10 9 9 10 10 11 12 12 13 13 13 13 13 13 14 15 15 15 15 16 16 16 17 16 15 15 16 16 16 17 17 17 17 17 17 17 17 17
8 9 9 9 9 10 10 11 12 12 13 14 14 15 15 15 15 15 15 16 16 17 17 18 18 18 18 17 17 16 16 16 16 17 18 18 19 19 19 19 18 18 18
10 10 11 11 11 11 12 13 13 14 15 16 16 17 17 17 17 17 17 17 18 18 18 19 20 19 19 18 18 17 18 18 18 19 19 19 20 20 21 20 20 21 20
12 12 13 13 13 14 14 15 16 16 16 17 18 18 19 19 19 19 19 19 19 19 20 21 21 20 20 20 20 20 20 19 19 20 21 21 21 21 21 21 21 20 20
14 14 15 15 15 16 16 17 18 18 18 18 18 19 20 20 20 20 20 20 20 21 21 22 22 22 22 22 22 21 20 19 20 21 22 23 23 23 23 23 22 22 21
15 15 16 16 16 17 17 18 18 19 19 19 20 20 20 21 21 21 21 22 22 22 22 23 23 23 23 23 23 22 22 22 22 22 22 23 23 23 24 24 24 24 23
16 16 17 17 18 18 18 19 19 19 20 20 21 21 21 21 22 22 22 23 23 23 23 23 23 23 23 23 23 23 22 22 22 22 22 23 23 24 25 25 25 25 25
16 17 18 18 19 19 19 20 20 21 22 22 21 22 22 22 22 22 23 23 24 24 24 24 23 23 24 24 23 23 23 23 23 23 23 23 24 25 25 26 26 26 26
17 17 18 19 19 20 21 21 21 22 22 21 21 22 22 22 23 23 23 24 24 24 25 25 24 24 24 24 24 24 24 24 24 24 24 25 25 25 26 26 26 27 28
18 17 18 19 20 21 22 23 23 23 23 22 22 22 23 22 23 23 24 24 25 25 26 26 25 25 25 24 25 25 25 25 26 25 25 25 26 26 27 27 27 28 28
18 18 19 20 20 21 21 22 22 23 23 24 23 23 23 23 24 24 25 25 26 26 25 25 25 25 25 25 26 26 26 27 27 28 28 27 27 27 27 27 28 29 29
18 18 19 20 20 21 21 22 22 22 23 23 24 23 23 24 24 25 25 25 24 24 24 25 25 26 26 27 28 28 28 28 28 28 28 28 27 27 27 27 28 28 29
19 20 20 21 21 21 22 22 22 23 23 24 24 24 24 25 25 25 25 26 26 26 26 26 26 27 28 29 29 28 27 27 27 28 28 27 26 27 27 28 28 28 29
20 20 21 22 22 23 23 24 24 24 24 25 24 24 25 25 26 26 25 26 27 27 27 28 28 28 28 28 28 27 27 26 26 26 26 26 26 27 27 27 28 28 28